[[{"header":{"parameterUnit":"m.s-1","parameterCategory":1,"la1":30.2991,"la2":30.254,"lo1":-89.0895,"lo2":-89.0444,"dy":0.0017,"dx":0.0017,"nx":28,"ny":28,"refTime":"2024-09-28T03:00:00:Z","depth":0,"parameterNumber":2,"parameterNumberName":"U-component_of_WINDS"},"data":[0,0,0,0,0,0,0,0,0,0,0,0,0,0,0,0,0,0,0,0,0,0,0,0,0,0,0,0,0,0,0,0,0,0,0,0,0,0,0,0,0,0,0,0,0,0,0,0,0,0,0,0,0,0,0,0,0,0,3.546,3.5462,0,3.5648,3.5651,3.5653,3.56,3.5596,3.5592,3.5589,3.579,3.5798,3.5807,0,0,0,0,0,0,0,0,0,0,0,0,0,3.5061,3.5069,3.5459,3.5462,3.5464,3.5648,3.5651,3.5653,3.5601,3.5596,3.5591,3.5587,3.5787,3.5797,3.5808,0,0,0,0,0,0,0,0,0,0,0,0,0,3.5241,3.5071,3.5459,3.546,3.5462,3.5648,3.5651,3.5654,3.5602,3.5596,3.559,3.5585,3.5783,3.5796,3.581,3.6008,0,0,3.5851,3.5856,0,0,0,0,0,0,0,0,3.5231,3.5255,3.5458,3.546,3.5463,3.5595,3.5584,3.5773,3.5603,3.5549,3.5589,3.5582,3.573,3.5747,3.5796,3.6018,3.6026,3.5852,3.586,3.5866,3.587,0,0,0,0,0,0,0,3.5218,3.5247,3.5534,3.5461,3.5464,3.5454,3.5473,3.562,3.567,3.5553,3.555,3.5572,3.573,3.5783,3.58,3.6029,3.5851,3.5863,3.5872,3.5877,3.6425,3.6432,0,0,0,0,0,0,3.5203,3.5237,3.5528,3.554,3.533,3.5465,3.5487,3.5558,3.5668,3.5679,3.5577,3.5569,3.5763,3.5785,3.5807,3.6048,3.5866,3.5878,3.5886,3.6419,3.6427,3.6434,0,0,0,0,0,0,3.5194,3.5229,3.5521,3.5388,3.5424,3.5478,3.5559,3.5565,3.5617,3.5686,3.5696,3.5621,3.5759,3.5788,3.5958,3.6054,3.5884,3.5896,3.6411,3.6421,3.643,3.653,0,0,0,0,0,0,3.5183,3.5226,3.5301,3.539,3.5431,3.5667,3.5565,3.5573,3.564,3.5631,3.573,3.5741,3.5757,3.5939,3.5972,3.6069,3.5907,3.6403,3.6416,3.6427,3.6519,3.6542,3.6563,0,0,0,0,0,3.5169,3.5323,3.5305,3.534,3.5525,3.5672,3.5697,3.571,3.5648,3.5724,3.5768,3.5738,3.6038,3.5957,3.5993,3.6097,3.6397,3.6412,3.6426,3.6509,3.6538,3.6562,0,0,0,0,0,0,3.5246,3.5334,3.5315,3.5502,3.558,3.5663,3.576,3.574,3.5839,3.5827,3.5842,3.5865,3.6039,3.6085,3.5992,3.6296,3.6209,3.6232,3.6259,3.6287,3.6308,3.6294,3.5918,0,0,0,0,0,3.5284,3.5394,3.5466,3.5624,3.5664,3.5705,3.577,3.5774,3.5856,3.589,3.5946,3.603,3.6143,3.6217,3.6325,3.6525,3.6547,3.6614,3.6636,3.6654,3.6674,3.6785,3.6816,3.6482,3.6482,3.6482,0,0,3.5365,3.5427,3.5496,3.5641,3.5702,3.5818,3.5734,3.586,3.5947,3.591,3.6073,3.6118,3.6212,3.6399,3.6484,3.6442,3.6771,3.6672,3.6686,3.6697,3.6803,3.6834,3.6862,3.6492,3.649,3.6489,0,0,3.5572,3.5629,3.5767,3.5829,3.5921,3.5948,3.5981,3.6068,3.6096,3.626,3.6234,3.634,3.6534,3.6603,3.6663,3.6897,3.6873,3.6932,3.7046,3.7154,3.7181,3.7204,3.7289,3.7319,3.6951,3.6951,3.6952,0,3.5661,3.5833,3.5841,3.597,3.6035,3.6004,3.6146,3.6207,3.6331,3.6378,3.6329,3.6573,3.6634,3.6837,3.6894,3.6943,3.6984,3.6921,3.7175,3.7199,3.7221,3.7302,3.7334,3.6958,3.6957,3.6957,3.6956,0,3.5939,3.6059,3.616,3.6278,3.6355,3.649,3.652,3.6598,3.6595,3.6628,3.6797,3.6869,3.6991,3.7039,3.7039,3.7243,3.7214,3.7171,3.7084,3.7259,3.7336,3.7367,3.6967,3.6965,3.6963,3.6961,0,0,3.62,3.632,3.6358,3.6411,3.6511,3.6605,3.674,3.6857,3.6924,3.7011,3.7126,3.7291,3.7251,3.732,3.7327,3.7421,3.7604,3.7366,3.7369,3.7409,3.7835,3.7868,3.7904,3.7588,3.7594,3.7599,3.7828,0,3.6417,3.665,3.6661,3.6875,3.6986,3.6959,3.7076,3.7152,3.7186,3.7288,3.7327,3.7444,3.7382,3.7424,3.7516,3.7562,3.769,3.7545,3.7698,3.7703,3.7675,3.7944,3.7979,3.8192,3.7858,3.7863,3.7866,0,3.67,3.6793,3.7017,3.7102,3.7149,3.7254,3.7363,3.746,3.7546,3.7565,3.7642,3.7635,3.7776,3.7683,3.7879,3.778,3.7843,3.7876,3.7884,3.79,3.7796,3.7968,3.826,3.8292,3.7913,3.791,3.7906,0,3.6869,3.7051,3.7209,3.7256,3.7358,3.7433,3.7479,3.7559,3.763,3.7726,3.7772,3.7885,3.7947,3.8036,3.8061,3.7991,3.8256,3.8166,3.8278,3.8278,3.8336,3.8332,3.8643,3.8375,3.8374,3.8374,3.8373,0,3.7111,3.7249,3.7286,3.7384,3.7539,3.7552,3.7706,3.7748,3.782,3.7927,3.791,3.8012,3.8038,3.8145,3.8166,3.8326,3.8354,3.8375,3.8379,3.8377,3.8374,3.8419,3.8406,3.8382,3.838,3.8379,3.8377,0,3.7326,3.7357,3.7527,3.7609,3.7633,3.7744,3.7816,3.7911,3.7943,3.8078,3.8111,3.8163,3.8288,3.8321,3.8472,3.8486,3.8674,3.8664,3.8645,3.8645,3.8756,3.8745,3.9107,3.9156,3.8855,3.8857,3.886,0,3.7479,3.7584,3.7677,3.7746,3.7796,3.7908,3.7979,3.7996,3.8072,3.8178,3.8261,3.8383,3.8482,3.8685,3.8737,3.8853,3.8846,3.8965,3.8864,3.8859,3.885,3.8844,3.8855,3.8985,3.8988,3.899,3.8993,0,3.7747,3.7756,3.7857,3.7965,3.805,3.8136,3.8219,3.8277,3.8307,3.8393,3.8519,3.8596,3.8749,3.8872,3.8989,3.904,3.9023,3.9024,3.9056,3.9056,3.9041,3.9052,3.8698,3.9016,3.9013,3.9012,3.901,3.901,3.7937,3.8029,3.8109,3.8224,3.8287,3.8365,3.8458,3.8501,3.8605,3.8729,3.8734,3.8872,3.8958,3.9112,3.917,3.928,3.9245,3.9291,3.9304,3.9315,3.9325,3.9022,3.9301,3.9301,3.93,3.93,3.9299,0,3.8204,3.8254,3.8359,3.8474,3.8565,3.8537,3.8627,3.8706,3.8827,3.8906,3.9003,3.915,3.9269,3.9331,3.945,3.9527,3.9522,3.9558,3.9553,3.9566,3.9349,3.931,3.956,3.956,3.956,3.956,3.956,3.9559,3.8355,3.851,3.853,3.8718,3.8768,3.8901,3.8955,3.9027,3.9091,3.9254,3.9352,3.939,3.9464,3.9588,3.9698,3.9713,3.9759,3.9799,3.981,3.9607,3.9581,3.9555,3.9518,3.9808,3.9809,4.0018,4.002,4.0021]},{"header":{"parameterUnit":"m.s-1","parameterCategory":1,"la1":30.2991,"la2":30.254,"lo1":-89.0895,"lo2":-89.0444,"dy":0.0017,"dx":0.0017,"nx":28,"ny":28,"refTime":"2024-09-28T03:00:00:Z","depth":0,"parameterNumber":3,"parameterNumberName":"V-component_of_WINDS"},"data":[0,0,0,0,0,0,0,0,0,0,0,0,0,0,0,0,0,0,0,0,0,0,0,0,0,0,0,0,0,0,0,0,0,0,0,0,0,0,0,0,0,0,0,0,0,0,0,0,0,0,0,0,0,0,0,0,0,0,-1.1179,-1.118,0,-1.1248,-1.1248,-1.1249,-1.1298,-1.1298,-1.1298,-1.1299,-1.1365,-1.1367,-1.1368,0,0,0,0,0,0,0,0,0,0,0,0,0,-1.1087,-1.1089,-1.1179,-1.118,-1.1181,-1.1248,-1.1248,-1.1249,-1.1298,-1.1298,-1.1298,-1.1299,-1.1365,-1.1367,-1.1368,0,0,0,0,0,0,0,0,0,0,0,0,0,-1.1138,-1.1089,-1.1179,-1.1213,-1.1217,-1.1247,-1.1248,-1.125,-1.1297,-1.1298,-1.1299,-1.1299,-1.1364,-1.1366,-1.1368,-1.137,0,0,-1.1375,-1.1376,0,0,0,0,0,0,0,0,-1.1135,-1.1142,-1.1207,-1.1211,-1.1215,-1.1265,-1.124,-1.129,-1.1297,-1.1267,-1.1299,-1.1299,-1.1331,-1.1336,-1.1347,-1.1373,-1.1376,-1.1375,-1.1376,-1.1377,-1.1378,0,0,0,0,0,0,0,-1.1132,-1.1139,-1.1206,-1.1208,-1.1213,-1.1224,-1.1232,-1.125,-1.1295,-1.1269,-1.1273,-1.1281,-1.1333,-1.1345,-1.1349,-1.1377,-1.1375,-1.1377,-1.1378,-1.1379,-1.1404,-1.1403,0,0,0,0,0,0,-1.1123,-1.1136,-1.1204,-1.1208,-1.1176,-1.1225,-1.1234,-1.1248,-1.1295,-1.1302,-1.128,-1.1283,-1.1341,-1.1347,-1.1352,-1.1355,-1.1377,-1.1379,-1.138,-1.1405,-1.1404,-1.1403,0,0,0,0,0,0,-1.1121,-1.1129,-1.1201,-1.1173,-1.1183,-1.1226,-1.1242,-1.1249,-1.1261,-1.1303,-1.1311,-1.1284,-1.1342,-1.1349,-1.1365,-1.1358,-1.138,-1.1382,-1.1405,-1.1404,-1.1403,-1.1361,0,0,0,0,0,0,-1.1118,-1.1128,-1.113,-1.1173,-1.1184,-1.1214,-1.1241,-1.125,-1.1265,-1.1269,-1.1309,-1.1316,-1.1343,-1.1361,-1.1367,-1.1361,-1.1384,-1.1406,-1.1405,-1.1404,-1.1363,-1.1359,-1.1355,0,0,0,0,0,-1.1115,-1.1115,-1.113,-1.1138,-1.1188,-1.1214,-1.122,-1.1252,-1.1264,-1.1266,-1.1292,-1.1315,-1.1358,-1.1362,-1.1369,-1.1364,-1.1407,-1.1405,-1.1404,-1.1365,-1.136,-1.1355,0,0,0,0,0,0,-1.1069,-1.1121,-1.1138,-1.1152,-1.1178,-1.1222,-1.1225,-1.1246,-1.1268,-1.1271,-1.1309,-1.1317,-1.1329,-1.1348,-1.1352,-1.1366,-1.1385,-1.1385,-1.1353,-1.1349,-1.1344,-1.1339,-1.1385,0,0,0,0,0,-1.1061,-1.1079,-1.1123,-1.1131,-1.1143,-1.1181,-1.1194,-1.1216,-1.1244,-1.1255,-1.1283,-1.1308,-1.1327,-1.1339,-1.1359,-1.1367,-1.1375,-1.1366,-1.1362,-1.1359,-1.1358,-1.1361,-1.1357,-1.1399,-1.1399,-1.1399,0,0,-1.1044,-1.1074,-1.1083,-1.1122,-1.1145,-1.1161,-1.119,-1.1206,-1.1218,-1.1258,-1.1274,-1.1295,-1.1325,-1.1336,-1.1343,-1.1353,-1.1348,-1.1357,-1.1354,-1.1355,-1.1359,-1.1355,-1.1352,-1.1398,-1.1398,-1.1398,0,0,-1.102,-1.1046,-1.1055,-1.1077,-1.1111,-1.1137,-1.1139,-1.1179,-1.1194,-1.1212,-1.1241,-1.1255,-1.1288,-1.1308,-1.1322,-1.1305,-1.1326,-1.1311,-1.1289,-1.1292,-1.1288,-1.1285,-1.1278,-1.1274,-1.131,-1.131,-1.131,0,-1.0994,-1.1021,-1.1056,-1.1071,-1.1086,-1.1123,-1.1131,-1.1151,-1.1189,-1.1199,-1.121,-1.1251,-1.1274,-1.129,-1.1285,-1.1296,-1.1298,-1.1306,-1.1286,-1.1284,-1.1282,-1.1274,-1.1271,-1.1307,-1.1308,-1.1308,-1.1308,0,-1.0986,-1.1004,-1.1007,-1.1043,-1.1059,-1.107,-1.1106,-1.1118,-1.1139,-1.1163,-1.1178,-1.1208,-1.1234,-1.1239,-1.126,-1.1257,-1.1262,-1.1279,-1.1298,-1.1275,-1.1269,-1.1266,-1.1304,-1.1305,-1.1306,-1.1306,0,0,-1.0936,-1.0992,-1.0992,-1.1008,-1.1048,-1.1062,-1.1074,-1.11,-1.1108,-1.1134,-1.1143,-1.117,-1.1185,-1.1202,-1.1225,-1.1227,-1.121,-1.1244,-1.1245,-1.1235,-1.1206,-1.1191,-1.1188,-1.1224,-1.1224,-1.1223,-1.1203,0,-1.0917,-1.0941,-1.0973,-1.0986,-1.1002,-1.1037,-1.1047,-1.1072,-1.1094,-1.1109,-1.1134,-1.1151,-1.1172,-1.1181,-1.1186,-1.1211,-1.1204,-1.1213,-1.1231,-1.1232,-1.1221,-1.1185,-1.117,-1.1149,-1.1201,-1.12,-1.12,0,-1.0899,-1.0922,-1.0937,-1.0974,-1.0982,-1.099,-1.1016,-1.1031,-1.1059,-1.1075,-1.1092,-1.1117,-1.113,-1.1148,-1.1165,-1.117,-1.1179,-1.1193,-1.1193,-1.1194,-1.1213,-1.1184,-1.1143,-1.1139,-1.1197,-1.1197,-1.1197,0,-1.0858,-1.0893,-1.0906,-1.0919,-1.0964,-1.0969,-1.0987,-1.1016,-1.1029,-1.1051,-1.106,-1.1083,-1.1095,-1.1111,-1.1141,-1.1151,-1.1153,-1.1174,-1.1165,-1.1164,-1.1163,-1.1162,-1.1121,-1.1172,-1.1172,-1.1172,-1.1172,0,-1.0833,-1.084,-1.0888,-1.0896,-1.0904,-1.0941,-1.0947,-1.0969,-1.0994,-1.1005,-1.1037,-1.1047,-1.1086,-1.11,-1.1123,-1.1132,-1.1138,-1.115,-1.1155,-1.1146,-1.1144,-1.1151,-1.1153,-1.1171,-1.1171,-1.1171,-1.1171,0,-1.0789,-1.0822,-1.0838,-1.0878,-1.0889,-1.0893,-1.0927,-1.0935,-1.0959,-1.0972,-1.0978,-1.1015,-1.1032,-1.1064,-1.1091,-1.1106,-1.111,-1.1121,-1.11,-1.1103,-1.1092,-1.1091,-1.1053,-1.1049,-1.1103,-1.1102,-1.1102,0,-1.077,-1.0776,-1.0817,-1.0827,-1.0845,-1.0861,-1.0874,-1.091,-1.0922,-1.0954,-1.0957,-1.0978,-1.0996,-1.1022,-1.1051,-1.1071,-1.1081,-1.1066,-1.1084,-1.1074,-1.1079,-1.1077,-1.1077,-1.1062,-1.1061,-1.106,-1.106,0,-1.0732,-1.0748,-1.0767,-1.079,-1.0806,-1.0826,-1.0848,-1.0854,-1.0894,-1.0906,-1.0925,-1.0939,-1.0966,-1.0985,-1.1009,-1.1027,-1.1049,-1.1054,-1.1053,-1.1042,-1.1029,-1.1034,-1.1087,-1.1054,-1.1055,-1.1055,-1.1056,-1.1056,-1.0699,-1.0705,-1.0735,-1.0754,-1.0774,-1.0794,-1.0802,-1.0828,-1.0844,-1.0869,-1.0889,-1.0906,-1.0932,-1.0967,-1.0983,-1.0995,-1.1006,-1.1004,-1.1004,-1.1002,-1.0997,-1.1028,-1.1,-1.1,-1.1001,-1.1001,-1.1001,0,-1.0661,-1.0682,-1.0699,-1.0729,-1.0743,-1.0764,-1.0789,-1.0799,-1.0814,-1.0837,-1.0854,-1.0875,-1.0893,-1.0923,-1.0943,-1.0947,-1.0958,-1.0951,-1.095,-1.0953,-1.0988,-1.0986,-1.0942,-1.0942,-1.0942,-1.0942,-1.0942,-1.0942,-1.0643,-1.0654,-1.0673,-1.0694,-1.0715,-1.0732,-1.0744,-1.0761,-1.078,-1.0801,-1.0817,-1.0837,-1.0862,-1.0884,-1.0901,-1.0909,-1.0914,-1.0904,-1.0915,-1.0946,-1.0951,-1.0956,-1.0955,-1.0905,-1.0905,-1.0879,-1.0879,-1.0879]}]]